Location: Lancaster
(34.6980°N, 118.1360°W)
Time: 06:00:47
(UTC-08:00)

Vanguard 1 - All Passes

Search period start: 21 January 2018 00:00
Search period end: 31 January 2018 00:00
Orbit: 649 x 3834 km, 34.2° (Epoch: 21 January)

Date Brightness Start Highest point End Pass type
(mag) Time Alt. Az. Time Alt. Az. Time Alt. Az.
21 Jan - 01:49:20 10° W 01:58:44 87° S 02:16:51 10° E visible
21 Jan - 04:09:50 10° W 04:22:56 64° SSW 04:44:42 10° SE visible
21 Jan - 06:32:59 10° W 06:48:01 33° SW 07:07:11 10° SSE visible
21 Jan - 21:32:42 10° SSW 21:37:21 31° SE 21:44:18 10° E night (unlit)
21 Jan - 23:50:43 10° WSW 23:57:29 82° S 00:10:26 10° E visible
22 Jan - 02:10:19 10° W 02:20:05 83° S 02:38:44 10° ESE visible
22 Jan - 04:31:01 10° W 04:44:20 55° SSW 05:05:40 10° SE visible
22 Jan - 06:55:30 10° W 07:09:18 26° SW 07:26:10 10° S daylight
22 Jan - 21:52:59 10° SW 21:57:59 44° SSE 22:06:00 10° E night (unlit)
23 Jan - 00:11:36 10° W 00:18:38 87° S 00:32:14 10° E visible
23 Jan - 02:31:19 10° W 02:41:26 77° SSW 03:00:29 10° ESE visible
23 Jan - 04:52:22 10° W 05:05:42 47° SSW 05:26:15 10° SE visible
23 Jan - 07:19:02 10° WSW 07:30:37 19° SW 07:44:02 10° S daylight
23 Jan - 19:58:49 10° SSE 19:59:49 11° SE 20:00:52 10° SE night (unlit)
23 Jan - 22:13:33 10° SW 22:18:46 58° SSE 22:27:34 10° E night (unlit)
24 Jan - 00:32:31 10° W 00:39:51 88° S 00:54:04 10° E visible
24 Jan - 02:52:19 10° W 03:02:46 69° SSW 03:22:01 10° ESE visible
24 Jan - 05:13:56 10° W 05:27:05 38° SSW 05:46:23 10° SSE visible
24 Jan - 07:45:16 10° WSW 07:51:59 12° SW 07:59:14 10° SSW daylight
24 Jan - 20:17:07 10° S 20:20:19 18° SE 20:24:12 10° E visible
24 Jan - 22:34:15 10° WSW 22:39:40 72° SSE 22:49:07 10° E night (unlit)
25 Jan - 00:53:27 10° W 01:01:05 86° S 01:15:55 10° E visible
25 Jan - 03:13:23 10° W 03:24:05 60° SSW 03:43:17 10° SE visible
25 Jan - 05:35:53 10° W 05:48:27 30° SW 06:05:58 10° SSE visible
25 Jan - 20:36:57 10° SSW 20:40:54 28° SSE 20:46:07 10° E visible
25 Jan - 22:55:04 10° WSW 23:00:41 82° S 23:10:42 10° E night (unlit)
26 Jan - 01:14:23 10° W 01:22:19 81° S 01:37:41 10° ESE visible
26 Jan - 03:34:33 10° W 03:45:26 51° SSW 04:04:12 10° SE visible
26 Jan - 05:58:27 10° W 06:09:52 23° SW 06:24:45 10° S visible
26 Jan - 20:57:15 10° SW 21:01:35 41° SSE 21:07:41 10° E night (unlit)
26 Jan - 23:15:58 10° W 23:21:46 87° S 23:32:20 10° E night (unlit)
27 Jan - 01:35:20 10° W 01:43:32 73° SSW 01:59:20 10° ESE visible
27 Jan - 03:55:52 10° W 04:06:46 42° SSW 04:24:43 10° SSE visible
27 Jan - 06:22:19 10° WSW 06:31:19 16° SW 06:42:08 10° S visible
27 Jan - 21:17:50 10° WSW 21:22:23 56° SSE 21:29:06 10° E night (unlit)
27 Jan - 23:36:51 10° W 23:42:53 88° S 23:54:00 10° E night (unlit)
28 Jan - 01:56:19 10° W 02:04:46 64° SSW 02:20:46 10° ESE visible
28 Jan - 04:17:27 10° W 04:28:09 33° SSW 04:44:46 10° SSE visible
28 Jan - 19:20:59 10° S 19:23:56 17° SSE 19:27:03 10° ESE visible
28 Jan - 21:38:35 10° WSW 21:43:17 71° SSE 21:50:29 10° E night (unlit)
28 Jan - 23:57:45 10° W 00:04:01 84° S 00:15:40 10° E visible
29 Jan - 02:17:21 10° W 02:26:00 54° SSW 02:41:56 10° SE visible
29 Jan - 04:39:29 10° W 04:49:34 26° SSW 05:04:09 10° SSE visible
29 Jan - 19:40:54 10° SSW 19:44:38 27° SSE 19:48:49 10° E visible
29 Jan - 21:59:27 10° WSW 22:04:16 82° S 22:11:54 10° E night (unlit)
30 Jan - 00:18:40 10° W 00:25:08 77° SSW 00:37:17 10° ESE visible
30 Jan - 02:38:29 10° W 02:47:16 44° SSW 03:02:44 10° SE visible
30 Jan - 05:02:18 10° WSW 05:11:02 19° SW 05:22:35 10° S visible
30 Jan - 20:01:17 10° SW 20:05:24 39° SSE 20:10:14 10° E visible
30 Jan - 22:20:20 10° W 22:25:17 87° S 22:33:21 10° E night (unlit)
